Location: Unspecified
(0.0000°N, 0.0000°E)
Time: 06:32:19
(UTC+00:00)

N. Korean satellite - Pass Details

Date: 28 November 2022
Orbit: 421 x 454 km, 97.3° (Epoch: 29 November)

Event Time Altitude Azimuth Distance (km) Brightness Sun altitude
Rises 04:27:38 0° 28° (NNE) 2,434 10.2 -18.6°
Reaches altitude 10° 04:29:51 10° 40° (NE) 1,562 9.3 -18.1°
Maximum altitude 04:32:46 28° 101° (E) 866 8.6 -17.4°
Drops below altitude 10° 04:35:40 10° 162° (SSE) 1,554 9.7 -16.8°
Sets 04:37:51 0° 174° (S) 2,419 10.5 -16.3°
